Regional Weather Roundup
Issued by NWS

Home | Current Version | Previous Version | Graphics & Text | Print | Product List | Glossary On
Versions: 1 2 3 4 5 6 7 8 9 10 11 12 13 14 15 16 17 18 19 20 21 22 23 24 25 26 27 28 29 30 31 32 33 34 35 36 37 38 39 40 41 42 43 44 45 46 47 48 49 50
000
ASUS43 KIND 300009
RWRIN

WEATHER ROUNDUP FOR INDIANA
NATIONAL WEATHER SERVICE INDIANAPOLIS IN
800 PM EDT WED JUL 29 2015

NOTE: "FAIR" INDICATES FEW OR NO CLOUDS BELOW 12,000 FEET WITH NO
SIGNIFICANT WEATHER AND/OR OBSTRUCTIONS TO VISIBILITY.

* - STATION DOES NOT REPORT WEATHER SUCH AS PRECIPITATION OR FOG.

+ - STATION NOT QUALITY CONTROLLED BY THE NATIONAL WEATHER SERVICE.
    USE DATA WITH CAUTION...ESPECIALLY DEWPOINT AND RELATIVE
    HUMIDITY OBSERVATIONS.

INZ001>003-010>013-019-020-300100-
NORTHWEST INDIANA

CITY           SKY/WX    TMP DP  RH WIND       PRES   REMARKS
GARY /AIRPORT/ MOSUNNY   84  52  32 W15G26    29.97R
KNOX *+        SUNNY     79  59  50 N6        29.96R
LA PORTE +     SUNNY     82  59  46 NW5       29.97S
6HR MIN TEMP:  80; 6HR MAX TEMP:  86;

MICHIGAN CITY+ SUNNY     79  59  50 NW3       29.97S
MONTICELLO +   MOSUNNY   82  63  53 NW10      29.97R
6HR MIN TEMP:  82; 6HR MAX TEMP:  88;

RENSSELAER +   SUNNY     79  59  50 W7        29.99R
VALPARAISO     SUNNY     82  57  42 NW10      29.97S
6HR MIN TEMP:  81; 6HR MAX TEMP:  87;


$$

LMZ046-743>745-300100-
SOUTHERN LAKE MICHIGAN

STATION/POSITION TIME  TEMP    WIND        PRES    WAVE
                       AIR SEA DIR/SP/G            HT
                 (UTC) (F)     (DEG/KT/KT) (MB)    (FT)
BURNS HARBOR     2300   83      30/  2/  3 1014.9S
MICHIGAN CITY    2300   78     240/  3/  4   N/A
5NW MICH CITY    0000   79 77  310/  6/  8   N/A     1

$$

INZ004-005-014>016-021>024-300100-
NORTH CENTRAL INDIANA

CITY           SKY/WX    TMP DP  RH WIND       PRES   REMARKS
ELKHART        SUNNY     81  57  44 N5        29.97
GOSHEN         SUNNY     79  59  50 NW10      29.96R
6HR MIN TEMP:  79; 6HR MAX TEMP:  86;

LOGANSPORT +   MOSUNNY   81  59  47 NW6       29.97R
PERU/GRISSOM   MOSUNNY   84  73  70 NW10      29.95R
6HR MIN TEMP:  83; 6HR MAX TEMP:  88;

ROCHESTER +    SUNNY     82  64  54 NW7       29.97R
SOUTH BEND     SUNNY     81  59  47 NW7       29.97S
6HR MIN TEMP:  80; 6HR MAX TEMP:  85;

WARSAW +       SUNNY     79  61  53 NW7       29.96R

$$

INZ006>009-017-018-025>027-300100-
NORTHEAST INDIANA

CITY           SKY/WX    TMP DP  RH WIND       PRES   REMARKS
ANGOLA *+      CLEAR     81  75  83 NW8       29.95R
AUBURN +       CLEAR     82  55  39 NW9       29.96R
FORT WAYNE     MOCLDY    83  67  58 NW8       29.95R
6HR MIN TEMP:  83; 6HR MAX TEMP:  89; 6HR PCP: TRACE;

HUNTINGTON +   PTCLDY    82  71  69 N5        29.95R
6HR MIN TEMP:  82; 6HR MAX TEMP:  87;


$$

INZ028-029-035-036-043>045-051>053-300100-
WEST CENTRAL INDIANA

CITY           SKY/WX    TMP DP  RH WIND       PRES   REMARKS
CRAWFORDSVL +  PTSUNNY   77  64  63 NW8         N/A
6HR MIN TEMP:  77; 6HR MAX TEMP:  84;

GREENCASTLE +  CLOUDY    81  70  69 NW6       29.99R
LAFAYETTE      MOSUNNY   80  65  59 NW8       29.98R
6HR MIN TEMP:  79; 6HR MAX TEMP:  86;

TERRE HAUTE    CLOUDY    83  70  64 N12G18    29.99R
6HR MIN TEMP:  83; 6HR MAX TEMP:  88;


$$

INZ030>032-037>040-046>048-054>057-064-065-300100-
CENTRAL INDIANA

CITY           SKY/WX    TMP DP  RH WIND       PRES   REMARKS
COLUMBUS       CLEAR     82  73  74 W3        29.96
FRANKFORT +    PTSUNNY   81  68  65 W14       30.00R
6HR MIN TEMP:  81; 6HR MAX TEMP:  87;

GREENWOOD *+   CLOUDY    84  72  65 NW3       29.97S
INDIANAPOLIS   CLOUDY    84  73  69 NW12      29.96R
6HR MIN TEMP:  84; 6HR MAX TEMP:  91; 6HR PCP: TRACE;

-EAGLE CREEK   PTSUNNY   84  74  71 NW9       29.96R
6HR MIN TEMP:  84; 6HR MAX TEMP:  89;

KOKOMO *+      PTSUNNY   84  73  70 N7        29.95S
6HR MIN TEMP:  84; 6HR MAX TEMP:  88;

MARION +       PTCLDY    82  75  78 N3        29.96R
MT COMFORT *+  MOCLDY    82  77  83 NW8       29.96F
SHELBYVILLE    CLOUDY    85  76  74 NW5       29.94F
6HR MIN TEMP:  85; 6HR MAX TEMP:  92;

ZIONSVILLE +   PTSUNNY   83  72  68 NW7       29.98R
6HR MIN TEMP:  83; 6HR MAX TEMP:  87;


$$

INZ033-034-041-042-049-050-058-059-300100-
EAST CENTRAL INDIANA

CITY           SKY/WX    TMP DP  RH WIND       PRES   REMARKS
MUNCIE         MOCLDY    84  74  71 NW9       29.95R
6HR MIN TEMP:  84; 6HR MAX TEMP:  89;


$$

INZ060-061-067>069-081>083-085>088-300100-
SOUTHWEST INDIANA

CITY           SKY/WX    TMP DP  RH WIND       PRES   REMARKS
EVANSVILLE     CLOUDY    85  75  72 NW5       29.97R
6HR MIN TEMP:  85; 6HR MAX TEMP:  95;

HUNTINGBURG *+ PTSUNNY   82  73  74 NW8       29.97R
6HR MIN TEMP:  82; 6HR MAX TEMP:  93;

WASHINGTON +   PTSUNNY   82  76  82 W5        29.97R
6HR MIN TEMP:  82; 6HR MAX TEMP:  90;


$$

INZ062-063-066-070>080-084-089>092-300100-
SOUTH CENTRAL AND SOUTHEAST INDIANA

CITY           SKY/WX    TMP DP  RH WIND       PRES   REMARKS
BLOOMINGTON    CLOUDY    83  75  77 NW6       29.98R
6HR MIN TEMP:  83; 6HR MAX TEMP:  91;

MADISON *+     CLOUDY    75  73  94 CALM      30.00R
NORTH VERNON + CLOUDY    79  79 100 CALM      29.96F
SEYMOUR +      CLOUDY    79  77  94 CALM      29.96R

$$




USA.gov is the U.S. government's official web portal to all federal, state and local government web resources and services.